STARLINK-1030, 44735

Orbit data source: Space-Track

STARLINK-1030, 44735 is a payload satellite owned by SpaceX/Seattle (US) in LEO that was launched on Mon, 11 Nov 2019 UTC via an FALCON 9 launch vehicle from the Air Force Eastern Test Range (AFETR). Payload-class satellites include a variety of spacecraft equipped with specific instruments for various scientific and technological missions. These include communications satellites like Starlink; space stations such as the ISS; scientific satellites like the Hubble; Earth observation satellites from companies like Planet Labs, Umbra, and HawkEye 360; GPS; miniature CubeSats for education and research; and military/defense satellites.

Loading next visibility...
Identifier
44735, 2019-074Y
Orbit
LEO
Last TLE update
10 hours ago
Origin
Manufacturer
SpaceX/Seattle
Mission
Partially operational Commercial Communications
Bus & Motor
STARLINK, Unknown motor
Mass
260 kg wet, ~248 kg dry
Launch date (UTC)
2019-11-11 (6 years ago)
Launch vehicle
FALCON 9
Launch site
Air Force Eastern Test Range (AFETR)
Object type
Payload
Rocket body
Debris
Shape & HBR
Box + 1 Pan, 4.4 m
Radar Cross Section
13.562 m², Large (>1 m²)

Expand to show TLE details & history

TLE from 10 hours ago
0 STARLINK-1030
1 44735U 19074Y   25199.58335648  .00135517  00000-0  94289-3 0  9999
2 44735  53.0469 153.7626 0008365  38.8215 343.0898 15.73440933313686
Epoch: 2025-07-18T14:00Z
TLE epoch observation values (Epoch: 2025-07-18T14:00:01.999Z)
Latitude
17.3564°
Longitude
20.64221°
Altitude
343.976 km
Speed
7.708 km/s
True Right ascension
11h 09m 07s
True Declination
17° 15' 10"
Sunlit
Object was in daylight at epoch
Visualization orbit readout
Latitude
26.17067°
Longitude
163.5493°
Altitude
351.488 km
Speed
7.701 km/s
Apparent Right ascension
22h 21m 28s
Apparent Declination
-6° 37' 35"
Sunlit
Object is in full shadow
Visualization observer readout
Local Sidereal Time
12:28:06
Azimuth
48.949° ENE
Elevation
-46.264°
Doppler factor
1
Orbital elements
Apogee altitude
354.979 km
Perigee altitude
343.724 km
Semi-major axis
6,727.488 km
Eccentricity
0.00084
Inclination
53.0469°
RAAN
153.7626°
Arg. of periapsis
38.8215°
True anomaly
343.06189°
Mean anomaly
343.0898°
Eccentric anomaly
343.07585°
Mean motion
3.93336 °/min
Orbital period
91.52 mins
BSTAR
0.00094289
Loading maneuver chart data...
Loading SW <> Apogee altitude chart data...
|